This is the latest recevied weather packets stored in our database for station/object KD7JB. If no packets are shown the sender has not sent any weather packets the latest 1 day(s).
| Time | Temp. | Humidity | Pressure | Rain* | Wind** | Luminosity | Snow |
|---|---|---|---|---|---|---|---|
| 1778049330 | 15.56° C | 52% | 1174.4 hPa | 0 mm | 2.24 m/s, 7° | 0 W/m² | - |
| 1778049027 | 15.56° C | 52% | 1174.5 hPa | 0 mm | 2.24 m/s, 18° | 0 W/m² | - |
| 1778048725 | 15.56° C | 51% | 1174.4 hPa | 0 mm | 1.79 m/s, 8° | 0 W/m² | - |
| 1778048422 | 15.56° C | 52% | 1174.6 hPa | 0 mm | 2.68 m/s, 16° | 0 W/m² | - |
| 1778048118 | 15.56° C | 52% | 1174.6 hPa | 0 mm | 1.79 m/s, 30° | 0 W/m² | - |
| 1778047816 | 16.11° C | 51% | 1174.5 hPa | 0 mm | 2.24 m/s, 6° | 0 W/m² | - |
| 1778047514 | 16.11° C | 51% | 1174.4 hPa | 0 mm | 2.24 m/s, 5° | 0 W/m² | - |
| 1778047211 | 16.11° C | 51% | 1174.6 hPa | 0 mm | 2.68 m/s, 6° | 0 W/m² | - |
| 1778046908 | 16.11° C | 51% | 1174.6 hPa | 0 mm | 2.24 m/s, 4° | 0 W/m² | - |
| 1778046604 | 16.11° C | 51% | 1174.5 hPa | 0 mm | 1.79 m/s, 10° | 0 W/m² | - |
| 1778046302 | 16.11° C | 50% | 1174.5 hPa | 0 mm | 2.24 m/s, 28° | 0 W/m² | - |
| 1778045997 | 15.56° C | 51% | 1174.5 hPa | 0 mm | 2.68 m/s, 355° | 0 W/m² | - |
| 1778045696 | 15.56° C | 51% | 1174.3 hPa | 0 mm | 1.34 m/s, 11° | 0 W/m² | - |
| 1778045394 | 16.11° C | 51% | 1174.6 hPa | 0 mm | 0.45 m/s, 7° | 0 W/m² | - |
| 1778045092 | 16.11° C | 50% | 1174.4 hPa | 0 mm | 1.79 m/s, 3° | 0 W/m² | - |
| 1778044789 | 16.67° C | 50% | 1174.5 hPa | 0 mm | 1.79 m/s, 12° | 0 W/m² | - |
| 1778044486 | 16.67° C | 50% | 1174.6 hPa | 0 mm | 2.68 m/s, 355° | 0 W/m² | - |
| 1778044183 | 16.11° C | 50% | 1174.5 hPa | 0 mm | 3.13 m/s, 11° | 0 W/m² | - |
| 1778043881 | 16.11° C | 50% | 1174.5 hPa | 0 mm | 1.34 m/s, 23° | 0 W/m² | - |
| 1778043577 | 16.11° C | 50% | 1174.6 hPa | 0 mm | 1.34 m/s, 334° | 0 W/m² | - |
| 1778043274 | 16.11° C | 51% | 1174.5 hPa | 0 mm | 1.79 m/s, 6° | 0 W/m² | - |
| 1778042971 | 16.11° C | 50% | 1174.3 hPa | 0 mm | 1.79 m/s, 357° | 0 W/m² | - |
| 1778042669 | 16.11° C | 50% | 1174.5 hPa | 0 mm | 1.34 m/s, 355° | 0 W/m² | - |
| 1778042366 | 16.11° C | 50% | 1174.5 hPa | 0 mm | 0.89 m/s, 358° | 0 W/m² | - |
| 1778042063 | 16.67° C | 50% | 1174.5 hPa | 0 mm | 0.89 m/s, 31° | 0 W/m² | - |
* Rain latest hour (hover to see other rain measurements)
** Current wind speed in m/s (hover to see current wind gust speed)